DUCHIFAT-3

Last updated on Sat Apr 13 2024 01:02:57 GMT+0100 (British Summer Time)

1 44854U 19089C 24103.29370057 .00012807 00000+0 69897-3 0 9994 2 44854 36.9586 88.3331 0010220 263.0239 96.9345 15.13719977238278
UTC large
Height (km)
Speed (km/s)
/
Latitude / Longitude
Inclination (degrees)
Orbital Period (minutes)
Azimuth
Elevation
Range (km)
Doppler Factor

Next 0 passes for location: London (51.5072 / 0.1276)

Sorry there are no passes over London.